MDT,Max TemperatureF,Mean TemperatureF,Min TemperatureF,Max Dew PointF,MeanDew PointF,Min DewpointF,Max Humidity, Mean Humidity, Min Humidity, Max Sea Level PressureIn, Mean Sea Level PressureIn, Min Sea Level PressureIn, Max VisibilityMiles, Mean VisibilityMiles, Min VisibilityMiles, Max Wind SpeedMPH, Mean Wind SpeedMPH, Max Gust SpeedMPH,PrecipitationIn, CloudCover, Events, WindDirDegrees
2013-8-1,77,66,54,57,50,45,100,69,38,30.08,29.98,29.90,10,9,2,22,10,29,0.25,3,Rain,87
2013-8-2,70,61,52,57,54,52,100,84,67,30.09,29.98,29.88,10,8,0,21,8,31,1.20,5,Fog-Rain,102
2013-8-3,72,61,49,59,54,47,100,79,57,30.15,30.09,30.01,10,9,1,28,6,37,0.09,3,Rain,61
2013-8-4,77,63,48,54,50,46,96,67,38,30.09,30.03,29.99,10,10,10,13,5,16,0.00,1,,95
2013-8-5,81,66,50,54,47,38,93,57,21,30.02,29.93,29.83,10,10,10,21,9,29,T,1,Rain,327
2013-8-6,77,62,46,49,46,40,93,60,27,30.03,29.98,29.94,10,10,10,18,7,26,0.00,1,,295
2013-8-7,78,65,51,54,50,46,89,63,36,30.02,29.97,29.93,10,10,10,16,9,23,0.00,1,,96
2013-8-8,77,64,50,55,51,48,93,68,43,30.10,30.04,29.99,10,10,10,16,6,21,T,2,,93
2013-8-9,76,65,53,57,51,46,80,62,43,30.14,30.09,30.05,10,10,10,23,10,29,0.03,4,Rain,107
2013-8-10,81,66,51,56,53,50,96,68,39,30.06,30.02,29.98,10,10,10,10,5,14,0.00,0,,88
2013-8-11,78,67,55,60,56,50,93,73,52,30.11,30.02,29.99,10,10,10,14,7,17,0.00,0,,112
2013-8-12,84,68,51,60,52,46,89,67,45,30.22,30.06,29.99,10,8,1,39,9,45,0.49,2,Rain,132
2013-8-13,80,66,52,57,52,44,89,65,40,30.17,30.08,30.02,10,10,10,29,7,35,T,1,Rain,148
2013-8-14,82,68,53,56,50,44,89,60,30,30.06,30.01,29.96,10,10,10,23,5,26,0.00,1,,99
2013-8-15,89,70,50,51,47,41,89,55,20,30.01,29.97,29.92,10,10,10,14,6,17,0.00,0,,110
2013-8-16,94,76,57,54,44,33,62,37,12,29.92,29.87,29.80,10,10,10,18,6,22,0.00,0,,163
2013-8-17,87,70,53,55,48,44,77,52,27,29.99,29.92,29.87,10,10,10,13,5,23,0.00,0,,155
2013-8-18,87,71,55,57,49,45,80,53,25,30.01,29.93,29.86,10,10,8,25,5,32,0.03,2,Rain,218
2013-8-19,91,70,49,47,41,34,71,43,14,29.94,29.88,29.80,10,10,10,22,5,28,0.00,0,,243
2013-8-20,85,67,48,49,43,35,71,48,25,29.94,29.89,29.85,10,10,8,12,6,16,0.00,0,,232
2013-8-21,79,64,48,45,41,37,71,48,24,30.10,30.05,29.94,10,10,10,14,7,18,0.00,0,,111
2013-8-22,88,71,53,56,51,44,83,57,30,30.06,29.97,29.85,10,10,10,15,7,20,0.00,0,,105
2013-8-23,87,73,58,57,51,43,84,54,23,29.88,29.79,29.73,10,10,6,41,7,55,0.04,1,Rain,183
2013-8-24,84,71,58,55,50,46,78,53,28,29.88,29.82,29.74,10,10,10,13,5,17,0.00,0,,92
2013-8-25,88,71,54,48,44,39,67,43,18,29.95,29.88,29.84,10,10,10,14,6,20,0.00,0,,105
2013-8-26,88,73,58,52,46,41,67,44,20,29.95,29.89,29.84,10,10,9,26,6,39,T,1,Rain,183
2013-8-27,86,69,52,52,48,44,89,57,25,30.01,29.93,29.88,10,10,10,18,7,24,0.00,0,,123
2013-8-28,91,73,54,60,51,43,93,59,24,29.98,29.89,29.81,10,10,8,35,6,45,0.07,1,Rain,174
2013-8-29,90,71,52,55,48,43,93,57,21,30.06,29.99,29.91,10,10,10,23,6,29,0.00,0,,122
2013-8-30,87,71,55,55,50,46,86,57,27,30.11,29.96,29.88,10,10,10,22,5,28,T,1,Rain,287
2013-8-31,76,62,47,44,41,37,71,49,27,30.12,30.08,30.00,10,10,10,13,7,18,0.00,0,,306